Regional Weather Roundup
Issued by NWS

Home | Current Version | Previous Version | Text Only | Print | Product List | Glossary Off
Versions: 1 2 3 4 5 6 7 8 9 10 11 12 13 14 15 16 17 18 19 20 21 22 23 24 25 26 27 28 29 30 31 32 33 34 35 36 37 38 39 40 41 42 43 44 45 46 47 48 49 50

000
ASUS43 KDTX 231610
RWRMI
MICHIGAN HOURLY REGIONAL WEATHER ROUNDUP
NATIONAL WEATHER SERVICE DETROIT/PONTIAC MI
1200 PM EDT THU OCT 23 2014

NOTE: "FAIR" INDICATES FEW OR NO CLOUDS BELOW 12,000 FEET WITH NO
SIGNIFICANT WEATHER AND/OR OBSTRUCTION TO VISIBILITY.

MIZ047>049-052>055-059>063-066>070-074>076-081>083-231700-
SOUTHEAST LOWER MICHIGAN

CITY           SKY/WX    TMP DP  RH WIND       PRES   REMARKS
ADRIAN         SUNNY     50  41  71 NW5       30.25F
ALMA           CLOUDY    43  42  97 CALM      30.25F
ANN ARBOR      SUNNY     52  40  63 NW9       30.24S
BAD AXE        CLOUDY    43  43 100 NW6       30.24F
CARO           PTSUNNY   45  40  84 CALM      30.24S
DETROIT CITY   SUNNY     54  39  57 NW5       30.24F
DETROIT        MOSUNNY   53  40  61 VRB3      30.25S
FLINT          SUNNY     49  39  68 N3        30.25F
GROSSE ILE     SUNNY     54  43  66 NW6       30.23S
HILLSDALE      SUNNY     50  43  76 SW3       30.23F
HOWELL         SUNNY     46  45  93 W7        30.23F

CITY           SKY/WX    TMP DP  RH WIND       PRES   REMARKS
JACKSON        SUNNY     49  41  74 VRB6      30.24S
LAMBERTVILLE   SUNNY     52  41  66 W5        30.25S
LANSING        MOSUNNY   47  39  74 W7        30.25F
LAPEER         PTSUNNY   44  39  81 CALM      30.24F
MASON          MOSUNNY   46  44  93 W5        30.24F
MONROE         SUNNY     52  43  71 NW5       30.23S
MT. CLEMENS    MOSUNNY   52  40  64 N5        30.21S
PONTIAC        MOSUNNY   50  39  66 N6        30.22F
PORT HOPE        N/A     48  40  73 CALM      30.23S
PORT HURON     MOSUNNY   50  45  81 CALM      30.23F
TRI CITIES     CLOUDY    45  39  79 W8        30.26F
TROY           SUNNY     53  39  60 NW5       30.25S
SAGINAW HB     CLOUDY    45  45 100 CALM      30.24F
$$
MIZ043>046-050>051-056>058-064>065-071>073-077>080-231700-
SOUTHWEST LOWER MICHIGAN

CITY           SKY/WX    TMP DP  RH WIND       PRES   REMARKS
BATTLE CREEK   MOSUNNY   49  41  74 W8        30.24F
BENTON HARBOR  SUNNY     50  43  77 VRB5      30.23F
BIG RAPIDS     CLOUDY    42  42 100 SE5       30.22S FOG
COLDWATER      PTSUNNY   45  43  95 W6        30.25S FOG
FREMONT        CLOUDY    44  43  98 SE5       30.22F
HOLLAND        SUNNY     50  44  80 S7        30.24S
GRAND RAPIDS   PTSUNNY   51  42  71 W5        30.23F
IONIA          CLOUDY    46  42  86 CALM      30.23F
KALAMAZOO      MOSUNNY   47  42  83 S8        30.24F
LUDINGTON      SUNNY     51  45  79 S6        30.19F
MARSHALL       MOSUNNY   45  42  90 W6        30.24F
MOUNT PLEASANT CLOUDY    42  39  89 SW6       30.24F
MUSKEGON       MOSUNNY   50  43  77 SE6       30.22F
SOUTH HAVEN    SUNNY     53  44  72 S5        30.23F
$$
MIZ016>042-231700-
NORTHERN LOWER MICHIGAN

CITY           SKY/WX    TMP DP  RH WIND       PRES   REMARKS
ALPENA         SUNNY     48  36  63 S10       30.21F
BEAVER ISLAND  CLOUDY    48  42  81 SW5       30.19S
BELLAIRE       MOSUNNY   48  40  73 S6        30.21F
CADILLAC       CLOUDY    40  40 100 S5        30.20S FOG
CHARLEVOIX     PTSUNNY   48  44  84 S7        30.22S
FRANKFORT      SUNNY     53  42  68 S9        30.19S
GAYLORD        SUNNY     45  34  65 W13       30.19F
GRAYLING       MOSUNNY   41  41 100 CALM      30.21F
HARBOR SPRINGS CLOUDY    46  39  76 S3        30.20F
HOUGHTON LAKE  CLOUDY    37  36  96 SW8       30.23F FOG     WCI  31
OSCODA         MOSUNNY   47  39  73 W3        30.22F
PELLSTON       MOSUNNY   47  38  71 SW8       30.20F
ROGERS CITY    SUNNY     48  39  71 CALM      30.21F
TRAVERSE CITY  PTSUNNY   46  39  76 VRB6      30.19F
$$
MIZ007>008-015-231700-
EASTERN UPPER MICHIGAN

CITY           SKY/WX    TMP DP  RH WIND       PRES   REMARKS
KINROSS        PTSUNNY   48  43  81 W7        30.19S
MACKINAC ISLAN MOSUNNY   46  40  79 SW5       30.20S
NEWBERRY       CLOUDY    47  42  81 SW14G22   30.15F
S. S. MARIE    CLOUDY    41  40  96 CALM      30.19F
MUNISING         N/A     52  42  69 S12G24    30.09F
$$
MIZ004>006-011>014-085-231700-
CENTRAL UPPER MICHIGAN

CITY           SKY/WX    TMP DP  RH WIND       PRES   REMARKS
MANISTIQUE     CLOUDY    51  46  80 S13G18    30.15F
ESCANABA       MOSUNNY   52  41  66 SW14G20   30.13S
MENOMINEE      PTSUNNY   54  39  58 SW13G18   30.11F
SAWYER-GWINN   SUNNY     46  37  71 S16G22    30.09F
$$
MIZ001>003-009>011-084-231700-
WESTERN UPPER MICHIGAN

CITY           SKY/WX    TMP DP  RH WIND       PRES   REMARKS
IRON MOUNTAIN  CLOUDY    45  37  73 S6        30.08F
HOUGHTON       CLOUDY    47  40  76 S13       30.02S
COPPER HARBOR    N/A     50  40  68 SW10      30.01S
IRONWOOD       CLOUDY    46  43  87 S7        29.99F
$$

ABBREVIATIONS USED IN REMARKS
   TC - TEMPERATURE IN CELSIUS
  WCI - WIND CHILL INDEX
   HX - HEAT INDEX
  VSB - VISIBILITY




USA.gov is the U.S. government's official web portal to all federal, state and local government web resources and services.